Volver al catálogo

STARLINK-31958

ActivoComunicacionesVLEO
NORAD 59924·PAYLOAD·🇺🇸 United States

Lanzado Jun 1, 2024 desde Cape Canaveral Space Force Station

Loading…

Próximos Pases (próximas 24 horas)

TLE

ActualizadoSource: CelesTrak SupGP

Época: Sep 14, 2026, 21:35 UTC

1 59924C 24106C   26257.89979167 -.00023374  00000+0 -84662-3 0  2576
2 59924  43.0025 329.4548 0001610 267.3689 241.9757 15.27589007    19

Sigue STARLINK-31958 en tiempo real con AllMySat

Download on the App Store